Starlink 3244

operational
NORAD ID: 49741 Int'l Des: 2021-115 Owner: SPXS Country: US Constellation: starlink
LEOCIRCULAR

Über Starlink 3244

Beschreibung wird geladen...

Live-Position

3D-Globus wird geladen...

Nächste Überflüge

Höhenverlauf

Altitude vs Time

uPlot chart will show altitude changes over time

Zweizeiliger Elementsatz

1 49741U 21115T 26034.70229108 .00000470 00000-0 47642-4 0 9997
2 49741 53.2186 301.7101 0001503 87.8122 272.3043 15.08833766230409
Epoch: 3. Feb. 2026 • Age: 31 hours

Aktueller Status

Höhe 540.8 km
Geschwindigkeit 7.60 km/s
Subsatellitenpunkt 29.81°N, 39.71°W
Startdatum 2. Dez. 2021
Alter 4.1 years
Typ internet

Technische Details

Klassifizierung Payload
Masse 290.00 kg
Trockenmasse 270.00 kg
Gesamtmasse 290.00 kg
Länge 0.20 m
Durchmesser 2.80 m
Spannweite 9.00 m
Form Box + pan
Hersteller SPXS
Bus-Typ Starlink
Phasenstatus In Orbit
Besitzer/Staat SPXS/US

Große Konstellationen

Loading constellations...